Theta_e
332 331 330 329 330 330 330 330 331 334 334 336 336 336 335 332 333 334 332 342 346 348 349 350 347 345 344 345 346 348 347 348 347 346 345 343 343 344 343 342 342 343 342
332 330 327 328 327 330 330 331 330 331 332 334 334 335 334 333 333 334 334 334 345 347 346 347 346 345 344 344 344 345 347 345 346 346 345 345 343 344 342 341 342 341 341
330 329 328 326 328 329 328 329 328 327 328 330 331 332 332 333 334 335 335 337 340 346 346 344 345 344 344 344 344 344 346 346 345 346 346 345 343 342 343 342 341 340 340
332 330 329 327 326 328 328 329 326 324 326 326 328 330 330 332 334 338 337 336 336 336 342 339 340 343 345 344 344 344 345 345 345 345 345 345 341 342 341 342 341 341 341
334 333 331 330 327 327 327 328 326 326 324 325 327 327 328 330 333 336 335 335 333 337 335 339 342 341 343 344 343 343 344 345 344 345 345 344 341 341 341 341 342 342 341
337 334 334 330 329 328 327 325 326 326 324 326 328 329 328 329 330 331 332 333 332 333 332 331 331 335 342 343 344 344 343 345 345 344 345 344 343 342 342 341 342 341 340
339 335 334 332 330 328 329 328 326 325 323 325 323 322 324 327 328 328 328 329 330 331 330 331 330 330 332 341 341 342 342 343 344 344 343 343 343 342 341 340 341 340 339
341 338 335 334 331 330 327 328 327 323 325 326 325 321 316 319 323 326 326 326 327 329 330 331 330 330 330 331 334 340 340 342 344 344 343 342 342 343 340 341 341 338 338
340 341 337 335 333 333 329 329 329 329 326 327 327 323 315 314 317 319 321 323 325 324 325 327 329 330 330 329 334 336 340 340 343 344 343 342 342 342 341 340 341 338 338
336 339 339 336 336 335 332 330 331 332 329 325 326 329 327 324 318 315 317 319 322 323 324 324 326 328 329 328 332 334 335 338 344 344 343 342 341 342 342 340 340 340 337
336 340 340 338 337 335 334 332 331 331 330 328 327 326 326 324 321 315 313 313 318 321 322 323 323 324 326 327 327 331 333 334 337 340 341 341 342 342 341 340 339 339 338
334 339 339 338 338 336 334 333 332 331 331 330 328 328 326 323 319 314 311 311 312 315 318 320 320 321 323 324 329 332 330 329 331 332 333 336 340 342 341 340 340 340 339
332 336 337 336 336 336 335 334 333 332 330 329 327 325 323 320 318 316 314 311 312 313 315 318 320 319 321 322 326 333 333 328 328 328 328 331 335 338 337 339 340 339 338
334 337 338 336 336 336 335 333 334 332 331 328 324 322 321 320 318 318 316 313 309 312 312 313 316 321 323 323 326 333 330 327 325 324 324 326 329 332 333 335 336 335 335
335 336 336 336 336 336 335 334 332 330 331 329 324 322 321 319 318 318 318 317 313 306 307 312 314 323 323 325 326 326 328 326 326 322 322 323 325 326 328 329 329 329 330
335 335 334 334 334 334 334 334 329 331 329 324 323 322 320 320 319 320 320 320 317 311 307 312 315 324 325 328 329 325 326 326 323 321 321 321 321 323 324 325 325 326 327
334 335 335 334 333 333 334 331 327 327 325 323 322 322 321 321 319 321 323 320 316 313 310 313 320 326 325 327 326 323 324 324 322 321 322 320 319 320 320 321 322 323 323
335 336 335 335 335 333 331 328 327 327 325 322 321 321 321 323 321 324 322 320 316 314 313 312 320 324 323 325 324 323 324 326 324 322 320 319 318 318 318 317 317 317 318
335 336 336 335 334 332 328 327 328 326 324 322 321 321 321 321 320 322 319 321 317 317 314 315 319 323 324 324 322 323 322 322 323 322 318 319 317 317 317 315 314 314 313
335 335 335 334 333 331 329 327 324 323 322 322 321 321 321 320 319 320 320 321 316 315 315 319 321 319 321 322 321 319 317 320 319 321 319 318 318 318 316 316 316 315 311
334 334 332 331 330 327 327 325 324 322 321 320 319 320 320 321 320 320 323 320 317 315 320 319 318 318 319 319 318 318 316 317 317 319 319 319 321 320 318 316 319 316 310
329 328 327 325 322 321 306 309 319 321 320 318 318 317 318 317 317 314 314 315 319 320 319 319 318 316 318 316 318 318 317 317 313 320 317 315 321 318 318 318 313 310 308
325 322 321 320 316 315 302 304 309 320 319 318 318 320 321 323 320 322 312 311 310 311 316 321 319 319 317 318 319 317 314 313 313 316 318 313 318 316 318 315 308 307 306
322 318 317 316 316 312 301 302 308 317 316 316 320 321 321 320 321 321 320 321 321 320 320 321 323 319 318 321 320 319 314 314 316 316 318 312 315 314 316 315 306 306 305
318 317 317 316 317 314 301 301 312 315 315 316 320 320 321 321 308 306 321 319 318 315 307 307 306 304 301 305 313 318 314 314 312 313 316 315 315 313 314 313 313 306 304
318 319 315 316 312 315 300 301 312 317 317 318 317 316 303 313 300 301 322 320 316 314 314 314 311 306 308 308 307 319 317 313 309 312 316 313 314 314 311 315 313 312 309
Wind_Speed
6 5 4 4 5 4 4 5 5 5 5 6 6 6 6 6 6 3 3 13 13 17 18 18 16 15 14 12 10 9 10 10 11 14 14 12 11 14 17 17 17 16 16
5 6 5 6 5 6 5 5 6 5 5 5 6 8 7 6 6 5 4 5 13 16 17 15 13 14 15 14 12 11 10 9 10 12 12 12 12 14 15 17 18 17 15
6 7 6 6 7 6 6 4 5 4 4 4 7 6 5 7 6 5 5 4 4 11 14 13 10 15 16 14 14 14 12 10 11 11 13 14 13 12 13 16 16 18 17
9 8 7 7 6 5 6 6 4 4 5 5 5 6 5 5 6 7 5 5 6 3 5 12 28 17 16 14 14 16 15 12 12 11 14 15 16 14 14 15 15 17 16
12 10 8 6 6 5 6 6 3 5 4 4 6 4 5 4 5 3 6 6 5 5 4 15 23 18 12 12 14 15 15 14 12 12 15 16 16 17 15 14 15 16 16
10 10 7 6 7 6 5 5 6 6 4 6 5 5 4 4 3 5 5 3 5 5 5 6 5 6 13 13 13 14 15 16 14 14 14 14 15 15 15 13 14 15 15
11 10 6 7 8 9 10 8 5 6 4 4 3 2 3 4 4 4 3 4 6 6 5 5 4 3 4 13 12 12 15 17 16 15 13 13 14 15 14 13 13 12 13
10 9 10 9 10 6 6 9 8 4 3 5 3 1 1 2 2 3 4 4 6 3 4 5 5 6 5 4 7 13 13 15 16 16 14 13 14 15 16 12 9 9 10
9 10 10 8 9 8 8 9 9 9 5 4 5 4 2 4 1 1 0 3 4 3 3 4 5 5 5 5 7 9 12 11 14 16 14 14 15 15 14 12 9 7 12
8 8 9 10 9 8 7 8 7 6 5 5 1 2 1 4 4 1 2 1 2 4 4 3 4 5 5 4 7 11 9 10 12 13 15 16 15 15 15 12 11 13 15
6 7 9 10 10 8 7 8 7 7 4 4 3 3 0 2 3 3 3 3 2 3 3 3 4 3 4 4 4 5 10 10 11 10 11 15 14 14 14 15 14 18 17
4 7 9 10 9 8 8 6 7 7 7 4 3 3 4 4 3 3 2 3 2 3 2 2 3 3 3 3 5 8 9 10 10 9 10 11 12 12 16 15 17 21 20
4 7 8 8 7 6 6 6 6 6 7 5 6 4 2 3 4 3 3 2 3 1 2 2 3 4 3 4 4 8 9 10 10 10 8 9 10 13 18 17 20 21 20
6 9 8 7 7 7 6 6 5 5 5 4 7 5 3 4 4 4 4 5 1 1 2 4 2 2 2 2 4 7 4 11 10 10 8 8 10 13 15 17 19 18 17
5 8 8 7 7 7 7 7 5 6 6 5 6 6 3 3 3 3 3 3 5 3 3 2 1 1 1 3 3 3 5 10 10 8 10 10 7 9 14 15 13 12 13
7 9 9 8 7 6 7 7 4 5 7 4 4 6 4 3 4 3 3 3 3 4 2 2 1 0 2 2 3 4 4 6 7 9 10 12 11 10 9 13 14 16 13
9 10 10 8 7 7 6 6 6 6 6 6 4 6 6 5 4 4 3 2 3 3 3 1 0 2 2 5 6 4 6 5 4 8 13 14 14 12 9 15 14 14 13
9 10 10 9 9 8 8 8 7 6 7 6 6 6 6 4 5 5 3 4 4 4 3 3 1 2 3 5 5 8 6 5 4 6 9 14 18 17 12 14 13 14 13
10 9 10 10 10 9 8 6 7 7 6 7 7 7 6 6 5 3 3 4 3 3 2 3 3 2 2 3 6 6 6 6 5 9 9 7 18 15 15 13 13 14 13
11 10 10 10 9 10 8 6 6 6 6 5 6 6 6 6 6 6 5 5 4 4 3 4 4 4 3 3 4 5 5 5 4 5 9 7 9 13 14 13 12 12 11
11 10 9 7 7 7 5 7 6 6 6 5 4 5 5 6 6 5 4 5 6 4 6 6 4 3 5 5 6 3 4 4 5 3 4 4 5 5 5 8 9 11 11
9 10 9 9 7 4 6 9 8 6 5 5 5 5 5 7 5 6 6 8 8 9 7 5 3 7 5 4 5 6 6 4 3 3 3 3 2 4 3 3 8 10 10
10 8 9 9 7 6 7 9 9 5 5 5 5 6 5 4 6 4 5 7 6 4 7 9 10 8 7 5 8 8 3 3 3 2 4 3 2 3 2 3 9 10 10
11 9 8 8 8 5 7 9 10 6 5 4 5 6 6 5 4 5 4 4 5 5 5 3 7 6 6 9 9 7 5 7 5 3 2 3 1 2 2 2 5 9 9
9 7 7 8 8 5 8 9 9 5 5 4 3 4 5 5 6 7 5 6 7 4 6 10 13 12 12 11 11 10 6 10 3 1 1 3 2 3 2 1 2 7 9
9 8 8 8 7 7 8 9 7 5 6 3 3 2 2 4 7 10 8 8 7 5 8 7 6 8 9 9 10 10 8 8 4 2 3 4 2 3 1 2 3 4 4
Wind_Direction
192 185 184 183 206 189 189 191 198 196 195 205 212 214 227 232 232 223 229 263 252 231 219 222 214 221 221 220 217 208 209 204 203 207 205 207 203 198 203 199 190 190 190
185 193 177 201 209 201 194 192 198 197 207 204 213 221 227 230 236 226 227 256 265 224 226 232 219 224 221 214 219 216 214 207 207 206 198 192 196 188 194 190 189 193 202
194 189 192 193 211 205 183 180 196 167 190 212 222 219 220 228 235 227 222 225 252 248 219 231 274 232 226 215 217 224 220 211 210 202 190 191 199 190 192 199 202 204 207
192 184 201 207 193 182 183 189 177 176 201 198 227 224 220 221 226 226 219 233 241 211 186 172 233 235 226 220 223 224 222 214 208 200 191 191 210 202 199 203 202 209 210
189 191 200 203 183 178 186 189 176 189 183 205 227 229 220 224 222 218 224 224 227 220 194 218 228 228 228 224 232 232 226 213 207 201 194 196 211 207 209 204 207 218 219
190 196 198 181 182 183 187 181 181 196 165 206 225 236 231 232 222 215 218 192 226 243 230 222 239 230 225 227 227 234 233 213 207 202 198 197 204 206 202 207 213 221 216
190 192 196 183 186 193 199 185 180 177 199 163 96 298 271 238 234 225 191 201 228 236 225 222 219 227 238 232 222 224 236 223 209 206 200 196 205 203 198 206 210 224 223
189 187 189 191 190 193 174 180 185 150 180 170 170 123 283 337 278 219 200 225 235 225 224 222 219 220 217 219 215 216 225 229 213 208 197 190 204 199 198 205 216 233 243
193 192 190 184 188 190 189 188 186 183 168 184 194 160 118 217 178 317 359 235 230 229 242 226 230 229 220 213 221 212 216 220 215 207 199 190 204 203 201 196 190 128 113
203 186 190 190 188 191 180 186 182 201 135 162 192 240 287 149 169 305 341 263 215 225 237 251 247 248 224 210 202 213 217 214 212 210 203 196 206 206 205 175 173 149 128
201 193 197 195 187 187 176 166 162 182 168 148 163 153 190 63 65 121 249 303 309 246 243 228 239 250 223 198 205 216 215 209 206 206 200 203 204 207 187 182 181 152 146
198 196 194 191 183 179 164 173 176 174 175 163 152 169 159 167 179 146 177 231 225 292 329 291 245 237 232 228 229 220 220 198 197 191 201 198 197 198 178 161 160 154 156
173 181 170 179 178 167 160 155 167 160 160 155 164 183 151 150 140 150 146 153 216 299 308 260 245 227 223 222 228 221 209 183 177 184 188 178 190 171 185 153 162 161 160
183 167 175 164 160 150 150 150 158 145 162 164 168 162 166 173 164 165 160 144 214 341 297 241 254 242 215 196 219 216 189 167 169 188 153 160 168 166 150 159 165 162 162
159 168 154 150 152 156 155 162 156 159 160 162 166 161 157 181 175 167 156 153 151 188 269 280 315 355 143 135 197 175 161 160 167 167 158 157 156 137 154 150 159 156 129
160 158 149 151 148 149 159 155 149 145 146 156 146 160 164 168 168 169 174 174 144 152 208 212 242 124 132 143 79 124 129 126 116 126 135 133 125 127 152 148 141 126 128
164 160 154 146 154 157 153 140 140 141 154 151 157 167 184 168 178 184 179 160 154 147 160 307 90 112 91 113 89 75 70 80 96 133 137 130 118 130 146 128 132 131 141
160 156 146 147 161 156 146 145 148 160 160 169 178 174 186 173 192 187 178 190 162 175 137 143 133 99 84 92 99 94 87 71 84 115 127 134 126 141 158 134 137 139 145
152 147 150 157 155 149 147 159 164 165 174 184 182 178 184 175 192 185 180 187 155 162 169 136 133 97 92 87 84 77 77 69 62 84 83 134 130 142 142 140 144 140 141
144 148 156 158 155 151 160 154 152 166 182 187 187 186 178 182 192 193 178 177 158 146 141 120 106 112 92 91 88 108 82 63 70 63 65 75 109 134 133 136 142 140 146
150 146 136 134 131 135 153 158 162 169 176 173 177 176 177 180 178 185 155 157 147 132 142 142 131 114 142 137 141 104 101 96 59 72 84 69 108 106 115 122 141 148 147
130 134 124 126 117 103 136 143 145 151 156 164 166 161 155 140 148 147 128 156 163 151 153 146 148 152 136 117 130 128 129 134 108 14 82 52 83 102 116 133 145 150 151
117 123 111 116 113 123 128 121 126 136 149 159 154 150 153 158 158 153 116 136 184 195 177 158 160 166 148 151 138 137 98 89 97 148 97 69 40 90 126 122 153 154 165
129 122 116 111 114 103 125 126 123 120 118 143 148 156 165 167 175 155 138 128 153 142 147 143 159 148 120 143 144 129 117 103 83 63 96 110 102 88 111 107 169 169 180
114 107 114 116 119 122 152 146 116 111 111 121 126 159 162 165 171 161 138 123 109 87 60 106 109 110 122 125 134 125 137 139 124 125 69 105 140 97 88 161 205 203 204
108 110 104 113 113 126 145 137 123 127 132 121 111 127 33 182 166 169 147 144 130 131 120 108 93 103 122 148 160 146 159 150 131 100 194 105 128 126 140 206 215 220 217